This demonstration page uses our WeatherBlox Daily Observations layout. Learn more.

Left ArrowRight Arrow

41.12389, -100.76542

Hourly Observations for July 17, 2018

Temp ( °F °C ) Dew Point ( °F °C ) Humidity (%) Winds ( mph kmh ) Pressure ( in mb ) Visibility ( mi km ) Precip ( " mm )
12:53 am 00:53 Clear 75 23.9 73 22.8 94 94 E 10 17 29.99 1016 10 16 0.00 0.00
1:14 am 01:14 Mostly Cloudy with Nearby Thunderstorms 75 23.9 74 23.3 96 96 ENE 12 19 29.97 1015 10 16 0.00 0.00
1:27 am 01:27 Cloudy with Thunderstorms 69 20.6 65 18.3 87 87 NNE 14 22 30.06 1018 8 13 0.00 0.03
1:32 am 01:32 Cloudy with Strong Thunderstorms 67 19.4 65 18.3 93 93 N 17 28 30.06 1018 2 3 0.13 3.30
1:34 am 01:34 Cloudy with Strong Thunderstorms 67 19.4 65 18.3 93 93 NNE 24 39 30.06 1018 1 2 0.19 4.83
1:43 am 01:43 Cloudy with Strong Thunderstorms 66 18.9 66 18.9 100 100 N 18 30 30.06 1018 1 2 0.49 12.45
1:49 am 01:49 Cloudy with Strong Thunderstorms 66 19 66 19 100 100 NE 12 19 30.06 1018 2 3 0.57 14.48
1:53 am 01:53 Cloudy with Strong Thunderstorms 66 18.9 66 18.9 100 100 E 10 17 30.08 1019 3 4 0.62 15.75
2:05 am 02:05 Cloudy with Strong Thunderstorms 65 18.3 65 18.3 100 100 NE 13 20 30.06 1018 4 6 0.10 2.54
2:37 am 02:37 Cloudy with Nearby Thunderstorms 66 18.9 65 18.3 96 96 NE 10 17 30.06 1018 8 13 0.19 4.83
2:53 am 02:53 Cloudy with Rain 66 18.9 65 18.3 96 96 N 12 19 30.09 1019 7 11 0.22 5.59
3:09 am 03:09 Cloudy with Nearby Thunderstorms 66 18.9 65 18.3 96 96 NNW 8 13 30.09 1019 5 8 0.05 1.27
3:24 am 03:24 Cloudy with Rain 66 18.9 66 18.9 100 100 N 3 6 30.09 1019 5 8 0.10 2.54
3:53 am 03:53 Cloudy with Rain 66 18.9 66 18.9 100 100 ESE 7 11 30.09 1019 6 10 0.21 5.33
4:53 am 04:53 Mostly Cloudy with Light Rain 67 19.4 65 18.3 93 93 ESE 23 37 30.01 1016 10 16 0.15 3.81
5:53 am 05:53 Mostly Clear 67 19.4 65 18.3 93 93 SE 16 26 29.98 1015 10 16 0.01 0.25
6:53 am 06:53 Sunny 66 18.9 63 17.2 90 90 N 6 9 30.02 1017 10 16 0.00 0.00
7:53 am 07:53 Sunny 70 21.1 65 18.3 84 84 Calm 30.01 1016 10 16 0.00 0.00
8:53 am 08:53 Sunny 72 22.2 65 18.3 79 79 NE 10 17 30.07 1018 10 16 0.00 0.00
9:53 am 09:53 Sunny 76 24.4 65 18.3 69 69 ENE 7 11 30.08 1019 10 16 0.00 0.00
10:53 am 10:53 Mostly Sunny 79 26.1 65 18.3 62 62 E 7 11 30.08 1019 10 16 0.00 0.00
11:53 am 11:53 Sunny 80 26.7 65 18.3 60 60 ENE 10 17 30.07 1018 10 16 0.00 0.00
12:53 pm 12:53 Sunny 82 27.8 67 19.4 60 60 VRB 3 6 30.05 1018 10 16 0.00 0.00
1:53 pm 13:53 Mostly Cloudy 83 28.3 67 19.4 59 59 SE 6 9 30.06 1018 10 16 0.00 0.00
2:53 pm 14:53 Partly Cloudy 85 29.4 68 20 57 57 VRB 6 9 30.05 1018 10 16 0.00 0.00
3:53 pm 15:53 Partly Cloudy 86 30 66 18.9 51 51 VRB 6 9 30.04 1017 10 16 0.00 0.00
4:53 pm 16:53 Sunny 87 30.6 64 17.8 46 46 ESE 8 13 30.01 1016 10 16 0.00 0.00
5:53 pm 17:53 Sunny 87 30.6 67 19.4 51 51 ESE 10 17 30.00 1016 10 16 0.00 0.00
6:53 pm 18:53 Sunny 85 29.4 68 20 57 57 SE 9 15 30.01 1016 10 16 0.00 0.00
7:53 pm 19:53 Sunny 80 26.7 69 20.6 69 69 SSE 9 15 30.00 1016 10 16 0.00 0.00
8:53 pm 20:53 Sunny 78 25.6 70 21.1 76 76 SE 7 11 30.00 1016 10 16 0.00 0.00
9:53 pm 21:53 Clear 72 22.2 71 21.7 97 97 SE 7 11 30.00 1016 10 16 0.00 0.00
10:53 pm 22:53 Clear 71 21.7 70 21.1 96 96 ESE 8 13 30.01 1016 10 16 0.00 0.00
11:53 pm 23:53 Clear 70 21.1 70 21.1 100 100 SE 7 11 30.02 1017 8 13 0.00 0.00

Powered by AerisWeather